Year,Month,Day,Hour,Minute,Value (Times are PST for windspeed in km/hr)
2007,05,09,00,00,2.40
2007,05,09,00,01,3.40
2007,05,09,00,02,2.30
2007,05,09,00,03,3.20
2007,05,09,00,04,3.00
2007,05,09,00,05,2.50
2007,05,09,00,06,2.30
2007,05,09,00,07,2.60
2007,05,09,00,08,1.20
2007,05,09,00,09,2.00
2007,05,09,00,10,1.10
2007,05,09,00,11,1.50
2007,05,09,00,12,3.00
2007,05,09,00,13,1.00
2007,05,09,00,14,1.90
2007,05,09,00,15,1.00
2007,05,09,00,16,0.20
2007,05,09,00,17,2.10
2007,05,09,00,18,2.60
2007,05,09,00,19,1.00
2007,05,09,00,20,2.70
2007,05,09,00,21,2.20
2007,05,09,00,22,2.60
2007,05,09,00,23,1.50
2007,05,09,00,24,0.70
2007,05,09,00,25,2.20
2007,05,09,00,26,1.00
2007,05,09,00,27,1.50
2007,05,09,00,28,1.90
2007,05,09,00,29,1.30
2007,05,09,00,30,2.20
2007,05,09,00,31,1.50
2007,05,09,00,32,2.80
2007,05,09,00,33,1.90
2007,05,09,00,34,2.60
2007,05,09,00,35,1.60
2007,05,09,00,36,1.40
2007,05,09,00,37,0.90
2007,05,09,00,38,2.30
2007,05,09,00,39,1.00
2007,05,09,00,40,0.00
2007,05,09,00,41,0.20
2007,05,09,00,42,0.10
2007,05,09,00,43,0.30
2007,05,09,00,44,0.20
2007,05,09,00,45,0.30
2007,05,09,00,46,0.60
2007,05,09,00,47,0.00
2007,05,09,00,48,0.40
2007,05,09,00,49,0.20
2007,05,09,00,50,0.00
2007,05,09,00,51,0.30
2007,05,09,00,52,0.60
2007,05,09,00,53,1.10
2007,05,09,00,54,0.70
2007,05,09,00,55,1.90
2007,05,09,00,56,1.00
2007,05,09,00,57,2.00
2007,05,09,00,58,1.90
2007,05,09,00,59,1.00
2007,05,09,01,00,1.50
2007,05,09,01,01,1.50
2007,05,09,01,02,2.00
2007,05,09,01,03,2.60
2007,05,09,01,04,1.90
2007,05,09,01,05,2.50
2007,05,09,01,06,2.10
2007,05,09,01,07,2.50
2007,05,09,01,08,1.40
2007,05,09,01,09,0.50
2007,05,09,01,10,0.90
2007,05,09,01,11,0.40
2007,05,09,01,12,1.00
2007,05,09,01,13,0.80
2007,05,09,01,14,0.10
2007,05,09,01,15,0.00
2007,05,09,01,16,0.00
2007,05,09,01,17,0.10
2007,05,09,01,18,0.50
2007,05,09,01,19,0.00
2007,05,09,01,20,1.00
2007,05,09,01,21,1.20
2007,05,09,01,22,1.30
2007,05,09,01,23,1.80
2007,05,09,01,24,1.80
2007,05,09,01,25,1.90
2007,05,09,01,26,2.10
2007,05,09,01,27,1.80
2007,05,09,01,28,1.90
2007,05,09,01,29,1.60
2007,05,09,01,30,0.70
2007,05,09,01,31,2.20
2007,05,09,01,32,0.70
2007,05,09,01,33,0.00
2007,05,09,01,34,0.00
2007,05,09,01,35,0.00
2007,05,09,01,36,0.20
2007,05,09,01,37,0.00
2007,05,09,01,38,0.00
2007,05,09,01,39,0.10
2007,05,09,01,40,0.00
2007,05,09,01,41,1.70
2007,05,09,01,42,1.80
2007,05,09,01,43,1.40
2007,05,09,01,44,0.50
2007,05,09,01,45,0.20
2007,05,09,01,46,0.60
2007,05,09,01,47,1.00
2007,05,09,01,48,0.30
2007,05,09,01,49,0.00
2007,05,09,01,50,0.00
2007,05,09,01,51,0.20
2007,05,09,01,52,0.60
2007,05,09,01,53,0.60
2007,05,09,01,54,2.60
2007,05,09,01,55,3.30
2007,05,09,01,56,2.50
2007,05,09,01,57,1.80
2007,05,09,01,58,2.20
2007,05,09,01,59,0.20
2007,05,09,02,00,1.00
2007,05,09,02,01,0.60
2007,05,09,02,02,0.50
2007,05,09,02,03,0.00
2007,05,09,02,04,0.10
2007,05,09,02,05,0.20
2007,05,09,02,06,0.40
2007,05,09,02,07,1.40
2007,05,09,02,08,1.70
2007,05,09,02,09,1.60
2007,05,09,02,10,1.80
2007,05,09,02,11,1.10
2007,05,09,02,12,1.30
2007,05,09,02,13,0.40
2007,05,09,02,14,0.10
2007,05,09,02,15,0.00
2007,05,09,02,16,0.00
2007,05,09,02,17,0.00
2007,05,09,02,18,0.50
2007,05,09,02,19,1.40
2007,05,09,02,20,0.20
2007,05,09,02,21,0.00
2007,05,09,02,22,0.00
2007,05,09,02,23,0.00
2007,05,09,02,24,0.00
2007,05,09,02,25,0.00
2007,05,09,02,26,0.90
2007,05,09,02,27,2.60
2007,05,09,02,28,2.60
2007,05,09,02,29,3.00
2007,05,09,02,30,2.10
2007,05,09,02,31,0.00
2007,05,09,02,32,0.00
2007,05,09,02,33,0.10
2007,05,09,02,34,0.30
2007,05,09,02,35,1.30
2007,05,09,02,36,1.50
2007,05,09,02,37,1.50
2007,05,09,02,38,0.80
2007,05,09,02,39,0.10
2007,05,09,02,40,0.00
2007,05,09,02,41,0.00
2007,05,09,02,42,0.00
2007,05,09,02,43,0.60
2007,05,09,02,44,1.10
2007,05,09,02,45,0.80
2007,05,09,02,46,0.10
2007,05,09,02,47,0.20
2007,05,09,02,48,0.30
2007,05,09,02,49,0.00
2007,05,09,02,50,0.80
2007,05,09,02,51,1.10
2007,05,09,02,52,3.30
2007,05,09,02,53,4.50
2007,05,09,02,54,3.10
2007,05,09,02,55,0.60
2007,05,09,02,56,0.90
2007,05,09,02,57,1.30
2007,05,09,02,58,1.40
2007,05,09,02,59,0.40
2007,05,09,03,00,0.00
2007,05,09,03,01,0.10
2007,05,09,03,02,0.20
2007,05,09,03,03,0.00
2007,05,09,03,04,0.00
2007,05,09,03,05,0.20
2007,05,09,03,06,0.20
2007,05,09,03,07,0.40
2007,05,09,03,08,1.10
2007,05,09,03,09,1.60
2007,05,09,03,10,1.40
2007,05,09,03,11,0.20
2007,05,09,03,12,1.40
2007,05,09,03,13,3.10
2007,05,09,03,14,3.20
2007,05,09,03,15,3.10
2007,05,09,03,16,2.70
2007,05,09,03,17,2.70
2007,05,09,03,18,1.30
2007,05,09,03,19,0.80
2007,05,09,03,20,1.00
2007,05,09,03,21,0.90
2007,05,09,03,22,1.10
2007,05,09,03,23,0.80
2007,05,09,03,24,1.10
2007,05,09,03,25,1.00
2007,05,09,03,26,0.60
2007,05,09,03,27,1.40
2007,05,09,03,28,0.30
2007,05,09,03,29,0.00
2007,05,09,03,30,0.00
2007,05,09,03,31,0.00
2007,05,09,03,32,0.10
2007,05,09,03,33,0.30
2007,05,09,03,34,0.70
2007,05,09,03,35,1.10
2007,05,09,03,36,1.30
2007,05,09,03,37,1.70
2007,05,09,03,38,0.80
2007,05,09,03,39,1.20
2007,05,09,03,40,1.10
2007,05,09,03,41,0.20
2007,05,09,03,42,1.90
2007,05,09,03,43,3.30
2007,05,09,03,44,3.20
2007,05,09,03,45,1.80
2007,05,09,03,46,0.10
2007,05,09,03,47,0.30
2007,05,09,03,48,0.60
2007,05,09,03,49,1.10
2007,05,09,03,50,1.30
2007,05,09,03,51,1.70
2007,05,09,03,52,2.50
2007,05,09,03,53,1.20
2007,05,09,03,54,2.40
2007,05,09,03,55,1.30
2007,05,09,03,56,1.10
2007,05,09,03,57,1.70
2007,05,09,03,58,0.90
2007,05,09,03,59,0.00
2007,05,09,04,00,1.30
2007,05,09,04,01,0.50
2007,05,09,04,02,1.40
2007,05,09,04,03,1.30
2007,05,09,04,04,1.90
2007,05,09,04,05,0.70
2007,05,09,04,06,1.40
2007,05,09,04,07,0.40
2007,05,09,04,08,1.10
2007,05,09,04,09,0.90
2007,05,09,04,10,0.40
2007,05,09,04,11,0.00
2007,05,09,04,12,0.00
2007,05,09,04,13,0.20
2007,05,09,04,14,0.00
2007,05,09,04,15,0.20
2007,05,09,04,16,0.00
2007,05,09,04,17,0.00
2007,05,09,04,18,0.00
2007,05,09,04,19,0.00
2007,05,09,04,20,0.00
2007,05,09,04,21,0.00
2007,05,09,04,22,0.00
2007,05,09,04,23,0.00
2007,05,09,04,24,0.00
2007,05,09,04,25,0.00
2007,05,09,04,26,0.00
2007,05,09,04,27,0.00
2007,05,09,04,28,0.00
2007,05,09,04,29,0.00
2007,05,09,04,30,0.10
2007,05,09,04,31,0.00
2007,05,09,04,32,0.00
2007,05,09,04,33,0.00
2007,05,09,04,34,0.00
2007,05,09,04,35,0.00
2007,05,09,04,36,0.00
2007,05,09,04,37,0.00
2007,05,09,04,38,0.00
2007,05,09,04,39,0.00
2007,05,09,04,40,0.00
2007,05,09,04,41,0.00
2007,05,09,04,42,0.00
2007,05,09,04,43,0.00
2007,05,09,04,44,0.00
2007,05,09,04,45,0.00
2007,05,09,04,46,0.00
2007,05,09,04,47,0.00
2007,05,09,04,48,0.00
2007,05,09,04,49,0.00
2007,05,09,04,50,0.00
2007,05,09,04,51,0.00
2007,05,09,04,52,0.00
2007,05,09,04,53,0.00
2007,05,09,04,54,0.00
2007,05,09,04,55,0.00
2007,05,09,04,56,0.00
2007,05,09,04,57,0.00
2007,05,09,04,58,0.00
2007,05,09,04,59,0.00
2007,05,09,05,00,0.10
2007,05,09,05,01,0.20
2007,05,09,05,02,0.00
2007,05,09,05,03,0.00
2007,05,09,05,04,0.90
2007,05,09,05,05,0.90
2007,05,09,05,06,0.00
2007,05,09,05,07,0.00
2007,05,09,05,08,0.10
2007,05,09,05,09,0.00
2007,05,09,05,10,0.00
2007,05,09,05,11,0.00
2007,05,09,05,12,0.00
2007,05,09,05,13,0.00
2007,05,09,05,14,0.00
2007,05,09,05,15,0.00
2007,05,09,05,16,0.00
2007,05,09,05,17,0.00
2007,05,09,05,18,0.00
2007,05,09,05,19,0.00
2007,05,09,05,20,0.00
2007,05,09,05,21,0.00
2007,05,09,05,22,0.00
2007,05,09,05,23,0.30
2007,05,09,05,24,0.90
2007,05,09,05,25,0.90
2007,05,09,05,26,0.60
2007,05,09,05,27,2.10
2007,05,09,05,28,0.90
2007,05,09,05,29,0.30
2007,05,09,05,30,0.00
2007,05,09,05,31,0.30
2007,05,09,05,32,0.20
2007,05,09,05,33,0.40
2007,05,09,05,34,0.40
2007,05,09,05,35,0.00
2007,05,09,05,36,1.10
2007,05,09,05,37,1.60
2007,05,09,05,38,1.20
2007,05,09,05,39,1.30
2007,05,09,05,40,0.60
2007,05,09,05,41,0.30
2007,05,09,05,42,0.00
2007,05,09,05,43,0.00
2007,05,09,05,44,0.80
2007,05,09,05,45,0.20
2007,05,09,05,46,0.00
2007,05,09,05,47,0.70
2007,05,09,05,48,0.00
2007,05,09,05,49,0.80
2007,05,09,05,50,1.30
2007,05,09,05,51,0.60
2007,05,09,05,52,0.20
2007,05,09,05,53,0.80
2007,05,09,05,54,2.40
2007,05,09,05,55,2.90
2007,05,09,05,56,4.10
2007,05,09,05,57,3.00
2007,05,09,05,58,0.20
2007,05,09,05,59,0.00
2007,05,09,06,00,0.00
2007,05,09,06,01,0.00
2007,05,09,06,02,0.00
2007,05,09,06,03,0.10
2007,05,09,06,04,0.00
2007,05,09,06,05,0.00
2007,05,09,06,06,0.00
2007,05,09,06,07,0.00
2007,05,09,06,08,0.00
2007,05,09,06,09,0.00
2007,05,09,06,10,0.00
2007,05,09,06,11,0.00
2007,05,09,06,12,0.20
2007,05,09,06,13,0.00
2007,05,09,06,14,0.10
2007,05,09,06,15,0.30
2007,05,09,06,16,0.20
2007,05,09,06,17,0.70
2007,05,09,06,18,1.10
2007,05,09,06,19,0.20
2007,05,09,06,20,0.20
2007,05,09,06,21,0.10
2007,05,09,06,22,0.00
2007,05,09,06,23,0.00
2007,05,09,06,24,0.00
2007,05,09,06,25,0.30
2007,05,09,06,26,1.30
2007,05,09,06,27,1.20
2007,05,09,06,28,0.60
2007,05,09,06,29,0.00
2007,05,09,06,30,0.10
2007,05,09,06,31,0.00
2007,05,09,06,32,0.30
2007,05,09,06,33,1.20
2007,05,09,06,34,1.90
2007,05,09,06,35,0.90
2007,05,09,06,36,0.20
2007,05,09,06,37,0.20
2007,05,09,06,38,1.10
2007,05,09,06,39,0.20
2007,05,09,06,40,0.20
2007,05,09,06,41,0.40
2007,05,09,06,42,0.00
2007,05,09,06,43,0.80
2007,05,09,06,44,0.70
2007,05,09,06,45,0.00
2007,05,09,06,46,0.00
2007,05,09,06,47,0.30
2007,05,09,06,48,0.10
2007,05,09,06,49,0.00
2007,05,09,06,50,0.30
2007,05,09,06,51,0.40
2007,05,09,06,52,1.10
2007,05,09,06,53,0.00
2007,05,09,06,54,0.20
2007,05,09,06,55,1.90
2007,05,09,06,56,1.10
2007,05,09,06,57,0.40
2007,05,09,06,58,1.40
2007,05,09,06,59,1.30
2007,05,09,07,00,0.60
2007,05,09,07,01,0.10
2007,05,09,07,02,0.00
2007,05,09,07,03,0.00
2007,05,09,07,04,0.00
2007,05,09,07,05,0.00
2007,05,09,07,06,0.00
2007,05,09,07,07,0.00
2007,05,09,07,08,0.00
2007,05,09,07,09,0.00
2007,05,09,07,10,0.00
2007,05,09,07,11,0.00
2007,05,09,07,12,0.00
2007,05,09,07,13,0.00
2007,05,09,07,14,0.00
2007,05,09,07,15,0.00
2007,05,09,07,16,0.00
2007,05,09,07,17,0.00
2007,05,09,07,18,0.00
2007,05,09,07,19,0.00
2007,05,09,07,20,0.00
2007,05,09,07,21,0.90
2007,05,09,07,22,3.10
2007,05,09,07,23,1.40
2007,05,09,07,24,1.80
2007,05,09,07,25,3.50
2007,05,09,07,26,3.50
2007,05,09,07,27,1.70
2007,05,09,07,28,3.00
2007,05,09,07,29,2.50
2007,05,09,07,30,2.90
2007,05,09,07,31,3.50
2007,05,09,07,32,3.20
2007,05,09,07,33,3.10
2007,05,09,07,34,2.60
2007,05,09,07,35,2.90
2007,05,09,07,36,3.80
2007,05,09,07,37,1.80
2007,05,09,07,38,2.40
2007,05,09,07,39,3.20
2007,05,09,07,40,3.00
2007,05,09,07,41,5.00
2007,05,09,07,42,5.50
2007,05,09,07,43,6.50
2007,05,09,07,44,4.90
2007,05,09,07,45,5.90
2007,05,09,07,46,6.50
2007,05,09,07,47,8.20
2007,05,09,07,48,5.10
2007,05,09,07,49,5.70
2007,05,09,07,50,6.20
2007,05,09,07,51,4.70
2007,05,09,07,52,5.40
2007,05,09,07,53,7.50
2007,05,09,07,54,6.40
2007,05,09,07,55,8.00
2007,05,09,07,56,6.40
2007,05,09,07,57,2.90
2007,05,09,07,58,2.80
2007,05,09,07,59,3.50
2007,05,09,08,00,5.20
2007,05,09,08,01,5.70
2007,05,09,08,02,6.20
2007,05,09,08,03,5.80
2007,05,09,08,04,4.90
2007,05,09,08,05,4.50
2007,05,09,08,06,4.40
2007,05,09,08,07,4.80
2007,05,09,08,08,7.30
2007,05,09,08,09,3.80
2007,05,09,08,10,4.10
2007,05,09,08,11,8.10
2007,05,09,08,12,9.40
2007,05,09,08,13,6.40
2007,05,09,08,14,5.30
2007,05,09,08,15,4.70
2007,05,09,08,16,5.30
2007,05,09,08,17,7.80
2007,05,09,08,18,3.40
2007,05,09,08,19,1.70
2007,05,09,08,20,6.20
2007,05,09,08,21,7.40
2007,05,09,08,22,3.90
2007,05,09,08,23,8.10
2007,05,09,08,24,6.10
2007,05,09,08,25,4.90
2007,05,09,08,26,9.30
2007,05,09,08,27,7.00
2007,05,09,08,28,8.40
2007,05,09,08,29,5.90
2007,05,09,08,30,7.30
2007,05,09,08,31,6.60
2007,05,09,08,32,2.80
2007,05,09,08,33,8.10
2007,05,09,08,34,4.50
2007,05,09,08,35,5.20
2007,05,09,08,36,5.10
2007,05,09,08,37,5.80
2007,05,09,08,38,6.40
2007,05,09,08,39,6.30
2007,05,09,08,40,7.30
2007,05,09,08,41,5.20
2007,05,09,08,42,5.60
2007,05,09,08,43,6.70
2007,05,09,08,44,7.20
2007,05,09,08,45,6.80
2007,05,09,08,46,5.30
2007,05,09,08,47,4.70
2007,05,09,08,48,4.40
2007,05,09,08,49,3.40
2007,05,09,08,50,5.60
2007,05,09,08,51,6.30
2007,05,09,08,52,5.50
2007,05,09,08,53,5.90
2007,05,09,08,54,6.60
2007,05,09,08,55,3.70
2007,05,09,08,56,5.20
2007,05,09,08,57,2.60
2007,05,09,08,58,0.00
2007,05,09,08,59,1.80
2007,05,09,09,00,7.50
2007,05,09,09,01,4.70
2007,05,09,09,02,1.60
2007,05,09,09,03,1.90
2007,05,09,09,04,2.50
2007,05,09,09,05,4.40
2007,05,09,09,06,5.40
2007,05,09,09,07,5.00
2007,05,09,09,08,3.90
2007,05,09,09,09,2.40
2007,05,09,09,10,0.00
2007,05,09,09,11,0.50
2007,05,09,09,12,5.30
2007,05,09,09,13,7.20
2007,05,09,09,14,4.50
2007,05,09,09,15,1.00
2007,05,09,09,16,0.00
2007,05,09,09,17,0.10
2007,05,09,09,18,6.00
2007,05,09,09,19,6.10
2007,05,09,09,20,2.90
2007,05,09,09,21,3.10
2007,05,09,09,22,5.30
2007,05,09,09,23,8.10
2007,05,09,09,24,6.50
2007,05,09,09,25,5.30
2007,05,09,09,26,5.20
2007,05,09,09,27,4.00
2007,05,09,09,28,2.90
2007,05,09,09,29,4.60
2007,05,09,09,30,4.90
2007,05,09,09,31,1.10
2007,05,09,09,32,1.60
2007,05,09,09,33,6.80
2007,05,09,09,34,4.00
2007,05,09,09,35,0.50
2007,05,09,09,36,4.80
2007,05,09,09,37,9.10
2007,05,09,09,38,4.80
2007,05,09,09,39,3.10
2007,05,09,09,40,5.80
2007,05,09,09,41,3.60
2007,05,09,09,42,7.50
2007,05,09,09,43,6.70
2007,05,09,09,44,5.20
2007,05,09,09,45,1.30
2007,05,09,09,46,4.40
2007,05,09,09,47,5.50
2007,05,09,09,48,5.50
2007,05,09,09,49,7.00
2007,05,09,09,50,6.20
2007,05,09,09,51,8.30
2007,05,09,09,52,8.00
2007,05,09,09,53,9.20
2007,05,09,09,54,7.80
2007,05,09,09,55,10.40
2007,05,09,09,56,5.50
2007,05,09,09,57,6.50
2007,05,09,09,58,5.40
2007,05,09,09,59,2.90
2007,05,09,10,00,1.00
2007,05,09,10,01,0.60
2007,05,09,10,02,5.70
2007,05,09,10,03,6.80
2007,05,09,10,04,8.50
2007,05,09,10,05,10.30
2007,05,09,10,06,7.80
2007,05,09,10,07,2.90
2007,05,09,10,08,7.80
2007,05,09,10,09,8.40
2007,05,09,10,10,4.90
2007,05,09,10,11,5.80
2007,05,09,10,12,6.80
2007,05,09,10,13,7.30
2007,05,09,10,14,5.50
2007,05,09,10,15,8.40
2007,05,09,10,16,8.70
2007,05,09,10,17,6.30
2007,05,09,10,18,7.50
2007,05,09,10,19,6.30
2007,05,09,10,20,7.90
2007,05,09,10,21,5.50
2007,05,09,10,22,5.10
2007,05,09,10,23,5.60
2007,05,09,10,24,2.60
2007,05,09,10,25,9.60
2007,05,09,10,26,9.00
2007,05,09,10,27,10.30
2007,05,09,10,28,5.70
2007,05,09,10,29,7.70
2007,05,09,10,30,9.10
2007,05,09,10,31,5.00
2007,05,09,10,32,4.80
2007,05,09,10,33,8.00
2007,05,09,10,34,9.80
2007,05,09,10,35,10.30
2007,05,09,10,36,7.30
2007,05,09,10,37,7.60
2007,05,09,10,38,6.40
2007,05,09,10,39,7.10
2007,05,09,10,40,4.80
2007,05,09,10,41,6.30
2007,05,09,10,42,6.60
2007,05,09,10,43,6.00
2007,05,09,10,44,6.00
2007,05,09,10,45,6.50
2007,05,09,10,46,4.30
2007,05,09,10,47,5.90
2007,05,09,10,48,2.70
2007,05,09,10,49,8.00
2007,05,09,10,50,7.30
2007,05,09,10,51,7.90
2007,05,09,10,52,5.60
2007,05,09,10,53,9.40
2007,05,09,10,54,6.20
2007,05,09,10,55,3.30
2007,05,09,10,56,5.30
2007,05,09,10,57,5.10
2007,05,09,10,58,3.90
2007,05,09,10,59,3.50
2007,05,09,11,00,3.70
2007,05,09,11,01,5.80
2007,05,09,11,02,8.30
2007,05,09,11,03,7.40
2007,05,09,11,04,5.40
2007,05,09,11,05,6.60
2007,05,09,11,06,7.70
2007,05,09,11,07,6.00
2007,05,09,11,08,2.00
2007,05,09,11,09,7.10
2007,05,09,11,10,6.40
2007,05,09,11,11,4.00
2007,05,09,11,12,5.20
2007,05,09,11,13,4.60
2007,05,09,11,14,2.90
2007,05,09,11,15,3.70
2007,05,09,11,16,5.40
2007,05,09,11,17,9.60
2007,05,09,11,18,6.40
2007,05,09,11,19,7.20
2007,05,09,11,20,3.30
2007,05,09,11,21,4.30
2007,05,09,11,22,6.60
2007,05,09,11,23,9.40
2007,05,09,11,24,10.40
2007,05,09,11,25,9.00
2007,05,09,11,26,9.00
2007,05,09,11,27,5.90
2007,05,09,11,28,7.60
2007,05,09,11,29,7.60
2007,05,09,11,30,9.30
2007,05,09,11,31,9.50
2007,05,09,11,32,9.70
2007,05,09,11,33,5.90
2007,05,09,11,34,9.70
2007,05,09,11,35,11.40
2007,05,09,11,36,8.10
2007,05,09,11,37,12.40
2007,05,09,11,38,9.90
2007,05,09,11,39,3.40
2007,05,09,11,40,7.40
2007,05,09,11,41,10.90
2007,05,09,11,42,15.30
2007,05,09,11,43,7.40
2007,05,09,11,44,6.10
2007,05,09,11,45,7.50
2007,05,09,11,46,9.00
2007,05,09,11,47,8.50
2007,05,09,11,48,9.40
2007,05,09,11,49,9.30
2007,05,09,11,50,11.20
2007,05,09,11,51,7.00
2007,05,09,11,52,7.50
2007,05,09,11,53,6.30
2007,05,09,11,54,8.20
2007,05,09,11,55,8.10
2007,05,09,11,56,6.50
2007,05,09,11,57,2.80
2007,05,09,11,58,1.50
2007,05,09,11,59,6.10
2007,05,09,12,00,6.10
2007,05,09,12,01,8.60
2007,05,09,12,02,7.50
2007,05,09,12,03,9.00
2007,05,09,12,04,8.30
2007,05,09,12,05,3.60
2007,05,09,12,06,6.00
2007,05,09,12,07,8.70
2007,05,09,12,08,8.00
2007,05,09,12,09,6.00
2007,05,09,12,10,6.70
2007,05,09,12,11,9.10
2007,05,09,12,12,8.50
2007,05,09,12,13,13.50
2007,05,09,12,14,10.40
2007,05,09,12,15,7.20
2007,05,09,12,16,2.80
2007,05,09,12,17,11.90
2007,05,09,12,18,13.50
2007,05,09,12,19,13.70
2007,05,09,12,20,9.70
2007,05,09,12,21,8.10
2007,05,09,12,22,9.50
2007,05,09,12,23,5.00
2007,05,09,12,24,6.90
2007,05,09,12,25,8.40
2007,05,09,12,26,8.40
2007,05,09,12,27,8.60
2007,05,09,12,28,7.80
2007,05,09,12,30,7.60
2007,05,09,12,31,6.30
2007,05,09,12,32,7.20
2007,05,09,12,33,7.30
2007,05,09,12,34,6.50
2007,05,09,12,35,7.30
2007,05,09,12,36,11.00
2007,05,09,12,37,8.60
2007,05,09,12,38,6.30
2007,05,09,12,39,10.30
2007,05,09,12,40,4.50
2007,05,09,12,41,3.50
2007,05,09,12,42,8.90
2007,05,09,12,43,3.30
2007,05,09,12,44,3.90
2007,05,09,12,45,8.30
2007,05,09,12,46,8.90
2007,05,09,12,47,7.70
2007,05,09,12,48,10.30
2007,05,09,12,49,9.40
2007,05,09,12,50,6.80
2007,05,09,12,51,5.10
2007,05,09,12,52,11.30
2007,05,09,12,53,4.50
2007,05,09,12,54,7.20
2007,05,09,12,55,8.90
2007,05,09,12,56,9.90
2007,05,09,12,57,7.40
2007,05,09,12,58,7.40
2007,05,09,12,59,8.00
2007,05,09,13,00,8.10
2007,05,09,13,01,6.00
2007,05,09,13,02,4.00
2007,05,09,13,03,6.80
2007,05,09,13,04,7.80
2007,05,09,13,05,5.50
2007,05,09,13,06,7.40
2007,05,09,13,07,8.60
2007,05,09,13,08,7.80
2007,05,09,13,09,9.60
2007,05,09,13,10,8.00
2007,05,09,13,11,7.50
2007,05,09,13,12,9.30
2007,05,09,13,13,9.00
2007,05,09,13,14,10.10
2007,05,09,13,15,8.30
2007,05,09,13,16,6.60
2007,05,09,13,17,8.20
2007,05,09,13,18,3.50
2007,05,09,13,19,7.80
2007,05,09,13,20,5.40
2007,05,09,13,21,8.50
2007,05,09,13,22,8.80
2007,05,09,13,23,7.50
2007,05,09,13,24,5.80
2007,05,09,13,25,6.70
2007,05,09,13,26,6.40
2007,05,09,13,27,8.60
2007,05,09,13,28,7.80
2007,05,09,13,29,9.20
2007,05,09,13,30,12.90
2007,05,09,13,31,7.20
2007,05,09,13,32,7.10
2007,05,09,13,33,6.30
2007,05,09,13,34,7.20
2007,05,09,13,35,8.80
2007,05,09,13,36,4.30
2007,05,09,13,37,7.90
2007,05,09,13,38,6.00
2007,05,09,13,39,8.80
2007,05,09,13,40,7.40
2007,05,09,13,41,6.10
2007,05,09,13,42,5.60
2007,05,09,13,43,6.70
2007,05,09,13,44,6.40
2007,05,09,13,45,3.90
2007,05,09,13,46,9.80
2007,05,09,13,47,9.60
2007,05,09,13,48,10.50
2007,05,09,13,49,8.40
2007,05,09,13,50,9.20
2007,05,09,13,51,9.30
2007,05,09,13,52,7.20
2007,05,09,13,53,12.60
2007,05,09,13,54,7.90
2007,05,09,13,55,6.20
2007,05,09,13,56,6.40
2007,05,09,13,57,7.50
2007,05,09,13,58,11.20
2007,05,09,13,59,11.70
2007,05,09,14,00,7.70
2007,05,09,14,01,10.90
2007,05,09,14,02,9.20
2007,05,09,14,03,7.60
2007,05,09,14,04,3.80
2007,05,09,14,05,9.10
2007,05,09,14,06,7.90
2007,05,09,14,07,9.80
2007,05,09,14,08,6.20
2007,05,09,14,09,9.90
2007,05,09,14,10,7.10
2007,05,09,14,11,7.50
2007,05,09,14,12,10.40
2007,05,09,14,13,6.50
2007,05,09,14,14,7.90
2007,05,09,14,15,5.20
2007,05,09,14,16,8.10
2007,05,09,14,17,6.60
2007,05,09,14,18,7.10
2007,05,09,14,19,8.50
2007,05,09,14,20,8.10
2007,05,09,14,21,9.00
2007,05,09,14,22,5.40
2007,05,09,14,23,8.80
2007,05,09,14,24,8.00
2007,05,09,14,25,7.10
2007,05,09,14,26,6.60
2007,05,09,14,27,8.60
2007,05,09,14,28,5.80
2007,05,09,14,29,4.70
2007,05,09,14,30,5.60
2007,05,09,14,31,4.70
2007,05,09,14,32,8.40
2007,05,09,14,33,3.50
2007,05,09,14,34,4.80
2007,05,09,14,35,8.90
2007,05,09,14,36,4.40
2007,05,09,14,37,8.60
2007,05,09,14,38,6.40
2007,05,09,14,39,7.10
2007,05,09,14,40,7.80
2007,05,09,14,41,8.50
2007,05,09,14,42,7.10
2007,05,09,14,43,4.80
2007,05,09,14,44,7.70
2007,05,09,14,45,8.00
2007,05,09,14,46,5.90
2007,05,09,14,47,4.20
2007,05,09,14,48,4.60
2007,05,09,14,49,8.00
2007,05,09,14,50,8.50
2007,05,09,14,51,9.90
2007,05,09,14,52,7.00
2007,05,09,14,53,5.80
2007,05,09,14,54,8.70
2007,05,09,14,55,12.40
2007,05,09,14,56,12.40
2007,05,09,14,57,9.30
2007,05,09,14,58,8.40
2007,05,09,14,59,9.30
2007,05,09,15,00,9.20
2007,05,09,15,01,6.40
2007,05,09,15,02,6.70
2007,05,09,15,03,7.30
2007,05,09,15,04,6.60
2007,05,09,15,05,6.80
2007,05,09,15,06,6.00
2007,05,09,15,07,11.00
2007,05,09,15,08,8.60
2007,05,09,15,09,7.00
2007,05,09,15,10,5.40
2007,05,09,15,11,4.00
2007,05,09,15,12,6.10
2007,05,09,15,13,7.80
2007,05,09,15,14,5.50
2007,05,09,15,15,6.40
2007,05,09,15,16,7.10
2007,05,09,15,17,6.40
2007,05,09,15,18,6.20
2007,05,09,15,19,8.10
2007,05,09,15,20,7.20
2007,05,09,15,21,5.40
2007,05,09,15,22,4.90
2007,05,09,15,23,5.20
2007,05,09,15,24,7.20
2007,05,09,15,25,6.90
2007,05,09,15,26,7.00
2007,05,09,15,27,9.40
2007,05,09,15,28,9.60
2007,05,09,15,29,7.40
2007,05,09,15,30,7.20
2007,05,09,15,31,4.70
2007,05,09,15,32,2.70
2007,05,09,15,33,4.30
2007,05,09,15,34,4.70
2007,05,09,15,35,3.90
2007,05,09,15,36,5.00
2007,05,09,15,37,4.60
2007,05,09,15,38,4.00
2007,05,09,15,39,6.70
2007,05,09,15,40,6.20
2007,05,09,15,41,5.10
2007,05,09,15,42,1.50
2007,05,09,15,43,1.90
2007,05,09,15,44,6.90
2007,05,09,15,45,5.40
2007,05,09,15,46,2.90
2007,05,09,15,47,1.80
2007,05,09,15,48,6.10
2007,05,09,15,49,8.00
2007,05,09,15,50,4.60
2007,05,09,15,51,5.20
2007,05,09,15,52,9.10
2007,05,09,15,53,6.80
2007,05,09,15,54,6.80
2007,05,09,15,55,9.60
2007,05,09,15,56,7.60
2007,05,09,15,57,9.70
2007,05,09,15,58,10.80
2007,05,09,15,59,7.90
2007,05,09,16,00,10.10
2007,05,09,16,01,6.80
2007,05,09,16,02,3.50
2007,05,09,16,03,10.70
2007,05,09,16,04,7.90
2007,05,09,16,05,6.00
2007,05,09,16,06,7.80
2007,05,09,16,07,6.10
2007,05,09,16,08,2.90
2007,05,09,16,09,2.60
2007,05,09,16,10,8.40
2007,05,09,16,11,6.70
2007,05,09,16,12,4.00
2007,05,09,16,13,6.00
2007,05,09,16,14,7.70
2007,05,09,16,15,7.10
2007,05,09,16,16,3.60
2007,05,09,16,17,3.00
2007,05,09,16,18,4.50
2007,05,09,16,19,5.00
2007,05,09,16,20,6.90
2007,05,09,16,21,2.40
2007,05,09,16,22,2.40
2007,05,09,16,23,8.40
2007,05,09,16,24,7.40
2007,05,09,16,25,3.00
2007,05,09,16,26,3.60
2007,05,09,16,27,5.60
2007,05,09,16,28,4.10
2007,05,09,16,29,5.10
2007,05,09,16,30,5.20
2007,05,09,16,31,4.80
2007,05,09,16,32,4.80
2007,05,09,16,33,5.80
2007,05,09,16,34,6.90
2007,05,09,16,35,5.50
2007,05,09,16,36,5.40
2007,05,09,16,37,2.90
2007,05,09,16,38,7.70
2007,05,09,16,39,8.50
2007,05,09,16,40,6.30
2007,05,09,16,41,7.30
2007,05,09,16,42,4.80
2007,05,09,16,43,5.90
2007,05,09,16,44,5.60
2007,05,09,16,45,4.30
2007,05,09,16,46,5.60
2007,05,09,16,47,5.00
2007,05,09,16,48,3.80
2007,05,09,16,49,5.50
2007,05,09,16,50,7.30
2007,05,09,16,51,6.00
2007,05,09,16,52,2.10
2007,05,09,16,53,4.90
2007,05,09,16,54,3.30
2007,05,09,16,55,4.50
2007,05,09,16,56,5.30
2007,05,09,16,57,7.90
2007,05,09,16,58,6.10
2007,05,09,16,59,3.00
2007,05,09,17,00,1.50
2007,05,09,17,01,2.40
2007,05,09,17,02,7.50
2007,05,09,17,03,7.60
2007,05,09,17,04,6.10
2007,05,09,17,05,5.40
2007,05,09,17,06,4.40
2007,05,09,17,07,6.90
2007,05,09,17,08,5.60
2007,05,09,17,09,4.70
2007,05,09,17,10,6.00
2007,05,09,17,11,7.20
2007,05,09,17,12,6.00
2007,05,09,17,13,6.90
2007,05,09,17,14,4.00
2007,05,09,17,15,4.60
2007,05,09,17,16,5.40
2007,05,09,17,17,4.60
2007,05,09,17,18,4.70
2007,05,09,17,19,5.40
2007,05,09,17,20,6.90
2007,05,09,17,21,3.00
2007,05,09,17,22,8.70
2007,05,09,17,23,9.80
2007,05,09,17,24,8.30
2007,05,09,17,25,6.50
2007,05,09,17,26,7.80
2007,05,09,17,27,5.60
2007,05,09,17,28,3.20
2007,05,09,17,29,5.30
2007,05,09,17,30,4.70
2007,05,09,17,31,8.60
2007,05,09,17,32,7.20
2007,05,09,17,33,7.00
2007,05,09,17,34,5.40
2007,05,09,17,35,8.50
2007,05,09,17,36,8.40
2007,05,09,17,37,8.00
2007,05,09,17,38,6.40
2007,05,09,17,39,3.90
2007,05,09,17,40,3.30
2007,05,09,17,41,3.80
2007,05,09,17,42,7.50
2007,05,09,17,43,7.90
2007,05,09,17,44,7.90
2007,05,09,17,45,4.60
2007,05,09,17,46,5.70
2007,05,09,17,47,7.50
2007,05,09,17,48,7.50
2007,05,09,17,49,4.70
2007,05,09,17,50,4.30
2007,05,09,17,51,3.10
2007,05,09,17,52,2.90
2007,05,09,17,53,4.70
2007,05,09,17,54,6.50
2007,05,09,17,55,4.80
2007,05,09,17,56,4.50
2007,05,09,17,57,5.30
2007,05,09,17,58,6.30
2007,05,09,17,59,5.90
2007,05,09,18,00,4.40
2007,05,09,18,01,5.70
2007,05,09,18,02,4.40
2007,05,09,18,03,5.40
2007,05,09,18,04,6.70
2007,05,09,18,05,6.00
2007,05,09,18,06,5.20